Regional Weather Roundup
Issued by NWS

Home | Current Version | Previous Version | Text Only | Print | Product List | Glossary On
Versions: 1 2 3 4 5 6 7 8 9 10 11 12 13 14 15 16 17 18 19 20 21 22 23 24 25 26 27
000
ASUS44 KJAN 071510
RWRMS

MISSISSIPPI HOURLY WEATHER ROUNDUP
NATIONAL WEATHER SERVICE JACKSON MS
900 AM CST WED DEC 07 2016

NOTE: "FAIR: INDICATES FEW OR NO CLOUDS BELOW 12,000 FEET WITH NO
SIGNIFICANT WEATHER AND/OR OBSTRUCTIONS TO VISIBILITY.

MSZ001>002-007>008-010>013-018>021-025>028-034>036-071600-
NORTHWEST MISSISSIPPI

CITY           SKY/WX    TMP DP  RH WIND       PRES   REMARKS
GREENWOOD      NOT AVBL
GREENVILLE     NOT AVBL
$$

MSZ003>006-009-014>017-022>024-029>033-037>039-071600-
NORTHEAST MISSISSIPPI

CITY           SKY/WX    TMP DP  RH WIND       PRES   REMARKS
COLUMBUS AFB   NOT AVBL
STARKVILLE     CLOUDY    45  41  87 NE3       30.15S
TUPELO         CLOUDY    44  37  76 N8        30.16R
$$

MSZ040-058-071600-
CENTRAL MISSISSIPPI

CITY           SKY/WX    TMP DP  RH WIND       PRES   REMARKS
JACKSON INTL   NOT AVBL
JACKSON HAWKNS NOT AVBL
MERIDIAN KEY   NOT AVBL
MERIDIAN NAS   NOT AVBL
$$

MSZ059>079-071600-
SOUTH MISSISSIPPI

CITY           SKY/WX    TMP DP  RH WIND       PRES   REMARKS
HATTIESBURG    NOT AVBL
LAUREL         CLOUDY    50  50 100 N5        30.14R
MCCOMB         NOT AVBL
NATCHEZ        NOT AVBL
PINE BELT      NOT AVBL
$$

MSZ080>082-071600-
COASTAL MISSISSIPPI

CITY           SKY/WX    TMP DP  RH WIND       PRES   REMARKS
BILOXI         NOT AVBL
PASCAGOULA     NOT AVBL
GULFPORT       NOT AVBL
$$

LAZ007>009-015>016-023>026-071600-
NORTHEAST LOUISIANA

CITY           SKY/WX    TMP DP  RH WIND       PRES   REMARKS
TALLULAH/VBURG NOT AVBL
$$




USA.gov is the U.S. government's official web portal to all federal, state and local government web resources and services.